Miscellaneous Local Product
Issued by NWS Hastings, NE

Home | Current Version | Previous Version | Text Only | Print | Product List | Glossary Off
Versions: 1 2 3 4 5 6 7 8 9 10 11 12 13 14 15 16 17 18 19 20 21 22 23 24 25 26 27 28 29 30 31 32 33 34 35 36 37 38 39 40 41 42 43 44 45 46 47 48 49 50

000
AXUS43 KGID 040402
MISGRI

GID CWA HOURLY WEATHER ROUNDUP
NATIONAL WEATHER SERVICE HASTINGS NE
1100 PM CDT FRI JUL 03 2015

NOTE: "FAIR" INDICATES FEW OR NO CLOUDS BELOW 12,000 FEET WITH NO
SIGNIFICANT WEATHER AND/OR OBSTRUCTIONS TO VISIBILITY.

...SOUTH CENTRAL NEBRASKA...

CITY           SKY/WX    TMP DP  RH WIND       PRES   REMARKS
GRAND ISLAND   CLEAR     66  63  90 SE6       30.02R
HASTINGS       CLEAR     68  62  81 SE7       30.02R
KEARNEY        CLEAR     66  61  82 SE7       30.02R
ORD            CLEAR     68  62  81 SE7       29.99R
YORK           CLOUDY    68  64  88 CALM      30.01R
AURORA         CLEAR     65  64  96 SE5       30.01S
LEXINGTON      CLEAR     68  64  85 SE7       30.03R
HOLDREGE       CLEAR     66  61  84 SE7       30.02R
HEBRON         CLEAR     67  64  90 CALM      30.00R

...NEBRASKA PANHANDLE...

CITY           SKY/WX    TMP DP  RH WIND       PRES   REMARKS
CHADRON        CLEAR     67  60  78 CALM      29.97R
ALLIANCE       PTCLDY    64  58  80 SE9       30.03R
SCOTTSBLUFF    CLOUDY    74  57  55 SE8       30.03R
SIDNEY         CLOUDY    68  57  68 SE9       30.08R

...WESTERN AND NORTH CENTRAL NEBRASKA...

CITY           SKY/WX    TMP DP  RH WIND       PRES   REMARKS
VALENTINE      CLEAR     70  60  70 SE9       29.99R
AINSWORTH      CLEAR     68  62  80 SE7       30.01R
ONEILL         CLEAR     69  65  88 SE6       29.99R
BROKEN BOW     CLEAR     67  61  81 SE6       30.01R
IMPERIAL       PTCLDY    70  60  70 SE9       30.04R
NORTH PLATTE   CLEAR     67  62  84 SE8       30.03R
MCCOOK         CLEAR     70  60  70 SE6       30.03R

...EASTERN NEBRASKA...

CITY           SKY/WX    TMP DP  RH WIND       PRES   REMARKS
NORFOLK        CLEAR     66  62  87 S7        29.99R
SO SIOUX CITY  CLEAR     68  59  73 E7        29.97R
TEKAMAH        CLEAR     62  58  86 S5        29.98R
COLUMBUS       CLEAR     63  55  77 CALM      29.98R
ALBION         CLEAR     65  61  86 SE3       30.01R
OMAHA EPPLEY   CLEAR     67  60  78 CALM      29.99R
OFFUTT AFB     CLEAR     60  58  95 NE1       29.98R
MILLARD        CLEAR     65  60  83 CALM      29.99R
LINCOLN        CLEAR     66  61  84 CALM      30.00R HAZE
NEBRASKA CITY  CLEAR     68  53  58 CALM      29.99R
BEATRICE       CLEAR     68  60  74 CALM      29.99R
FALLS CITY     CLEAR     68  61  78 N3        29.98R

...NORTHERN KANSAS...

CITY           SKY/WX    TMP DP  RH WIND       PRES   REMARKS
GOODLAND       MOCLDY    71  58  63 SE12      30.07R
HILL CITY      CLEAR     68  58  70 E6        30.02R
NORTON         CLEAR     68  57  68 E3        30.02R
PHILLIPSBURG   CLEAR     72  63  73 E5        30.01R
SMITH CENTER   CLEAR     66  61  82 E7        30.02R
HAYS           CLEAR     70  57  64 SE7       30.02R
RUSSELL        CLEAR     70  62  76 E8        30.00R
CONCORDIA      CLEAR     68  63  84 CALM      30.01R
SALINA         CLEAR     75  62  64 E5        29.99R
TOPEKA         CLEAR     65  63  93 CALM      29.98R



USA.gov is the U.S. government's official web portal to all federal, state and local government web resources and services.